ZF1RC George Town KY current weather conditions

sailwx.info

Wind from 153 at 1 knots gusting 1

Air temperature 31.7° C
Dewpoint 24.8° C

Last reported at 2017-Apr-29 20:10 UTC.
Time now 2017-Apr-29 21:13 UTC

Location: N 19°16' W 081°23'.
View on Google Maps.

See reports from other nearby stations

  
Tides and Currents Weather Stations Pressure Air Temp Water Temp Dewpoint Dewpoint Depression Visibility Wind Speed Wind Dir Waves Ship Positions
date/time (UTC)wind fromknots sea level pressurealtimeterstation pressurevisibilityair tempwater tempwave heightnotes
2017-Apr-29 20:10 153 1 gusting 1 31.7
2017-Apr-29 20:00 268 3 gusting 4 31.7
2017-Apr-29 19:50 060 0 gusting 1 31.7
2017-Apr-29 19:40 255 31.7
2017-Apr-29 19:30 092 0 gusting 1 31.7
2017-Apr-29 19:20 147 0 gusting 2 31.7
2017-Apr-29 19:10 197 0 gusting 4 31.7
2017-Apr-29 19:00 057 0 gusting 1 31.7
2017-Apr-29 18:50 130 0 gusting 4 31.7
2017-Apr-29 18:40 242 0 gusting 2 31.7
2017-Apr-29 18:30 097 1 gusting 2 31.1
2017-Apr-29 18:20 045 0 gusting 1 31.7
2017-Apr-29 18:10 157 0 gusting 6 31.7
2017-Apr-29 18:00 128 31.7
2017-Apr-29 17:50 079 1 gusting 2 31.7
2017-Apr-29 17:40 105 1 gusting 2 31.7
2017-Apr-29 17:30 031 0 gusting 7 31.7
2017-Apr-29 17:20 128 1 gusting 5 31.7
2017-Apr-29 17:10 095 0 gusting 4 31.7
2017-Apr-29 17:00 039 1 gusting 2 31.7
2017-Apr-29 16:50 325 2 gusting 6 31.7
2017-Apr-29 16:40 112 0 gusting 8 31.7
2017-Apr-29 16:30 063 0 gusting 4 31.7
2017-Apr-29 16:20 123 31.7
2017-Apr-29 16:10 128 31.7
2017-Apr-29 15:30 096 1 gusting 2 31.7
2017-Apr-29 15:20 098 2 gusting 2 31.7
2017-Apr-29 15:10 159 31.1
2017-Apr-29 15:00 130 0 gusting 4 30.6
2017-Apr-29 14:50 126 1 gusting 2 31.1
2017-Apr-29 14:40 140 0 gusting 5 31.1
2017-Apr-29 14:30 073 30.6
2017-Apr-29 14:20 104 5 gusting 6 30.6
2017-Apr-29 14:10 089 30.6
2017-Apr-29 14:00 070 3 gusting 5 30.0
2017-Apr-29 13:50 224 0 gusting 6 30.6
2017-Apr-29 13:40 112 2 gusting 8 30.0
2017-Apr-29 13:30 164 2 gusting 6 30.0
2017-Apr-29 13:20 119 2 gusting 6 29.4
2017-Apr-29 13:10 148 4 gusting 5 29.4
2017-Apr-29 13:00 137 0 gusting 4 29.4
2017-Apr-29 12:50 123 0 gusting 10 29.4
2017-Apr-29 12:40 071 3 gusting 7 28.9
2017-Apr-29 12:30 112 7 gusting 8 28.3
2017-Apr-29 12:20 040 4 gusting 5 28.3
2017-Apr-29 12:10 068 0 gusting 7 28.3
2017-Apr-29 12:00 094 1 gusting 6 27.8
2017-Apr-29 11:50 090 1 gusting 6 27.8
2017-Apr-29 11:40 111 4 gusting 8 27.2
2017-Apr-29 11:30 040 2 gusting 6 27.2
2017-Apr-29 11:20 161 1 gusting 4 27.2
2017-Apr-29 11:10 070 5 gusting 6 27.2
2017-Apr-29 11:00 098 2 gusting 4 27.2
2017-Apr-29 10:50 107 4 gusting 5 27.2
2017-Apr-29 10:40 27.2
2017-Apr-29 10:30 073 1 gusting 4 27.2
2017-Apr-29 10:20 098 2 gusting 5 27.2
2017-Apr-29 10:10 112 2 gusting 10 27.2
2017-Apr-29 10:00 120 0 gusting 7 27.2
2017-Apr-29 09:50 170 0 gusting 10 27.2
2017-Apr-29 09:40 079 4 gusting 6 27.2
2017-Apr-29 09:30 153 5 gusting 8 27.2
2017-Apr-29 09:20 090 3 gusting 5 27.2
2017-Apr-29 09:10 129 1 gusting 6 27.2
2017-Apr-29 09:00 218 2 gusting 6 27.2
2017-Apr-29 08:50 092 5 gusting 8 27.2
2017-Apr-29 08:40 048 1 gusting 4 27.2
2017-Apr-29 08:30 198 0 gusting 2 27.2
2017-Apr-29 08:20 050 2 gusting 4 27.2
2017-Apr-29 08:10 281 1 gusting 5 27.2
2017-Apr-29 08:00 080 1 gusting 5 27.8
2017-Apr-29 07:50 336 0 gusting 1 27.2
2017-Apr-29 07:40 042 1 gusting 5 27.2
2017-Apr-29 07:30 127 1 gusting 4 27.2
2017-Apr-29 07:20 060 27.8
2017-Apr-29 07:10 020 0 gusting 5 27.2
2017-Apr-29 07:00 165 2 gusting 5 27.2
2017-Apr-29 06:50 152 4 gusting 6 27.8
2017-Apr-29 06:40 239 0 gusting 6 27.2
2017-Apr-29 06:30 101 4 gusting 6 27.2
2017-Apr-29 06:20 076 2 gusting 8 27.2
2017-Apr-29 06:10 085 4 gusting 6 27.8
2017-Apr-29 06:00 122 3 gusting 4 27.8
2017-Apr-29 05:50 107 2 gusting 6 27.2
2017-Apr-29 05:40 098 2 gusting 6 27.2
2017-Apr-29 05:30 160 1 gusting 2 27.2
2017-Apr-29 05:20 129 27.8
2017-Apr-29 05:10 052 0 gusting 6 27.2
2017-Apr-29 05:00 098 1 gusting 6 27.8
2017-Apr-29 04:50 100 0 gusting 6 27.8
2017-Apr-29 04:40 065 0 gusting 6 27.2
2017-Apr-29 04:30 044 0 gusting 4 27.8
2017-Apr-29 04:20 039 1 gusting 2 27.2
2017-Apr-29 04:10 024 0 gusting 2 27.8
2017-Apr-29 04:00 223 0 gusting 4 27.8
2017-Apr-29 03:50 192 0 gusting 6 27.8
2017-Apr-29 03:40 090 0 gusting 6 27.8
2017-Apr-29 03:30 119 0 gusting 2 27.8
2017-Apr-29 03:20 085 1 gusting 10 27.2
2017-Apr-29 03:10 107 3 gusting 6 27.8
2017-Apr-29 03:00 138 27.8
2017-Apr-29 02:50 308 2 gusting 6 27.8
2017-Apr-29 02:40 067 2 gusting 6 27.8
2017-Apr-29 02:30 154 27.8
2017-Apr-29 02:20 068 3 gusting 4 27.8
2017-Apr-29 02:10 139 0 gusting 6 27.8
2017-Apr-29 02:00 108 2 gusting 10 27.8
2017-Apr-29 01:50 092 0 gusting 6 27.8
2017-Apr-29 01:40 102 0 gusting 6 27.8
2017-Apr-29 01:30 095 3 gusting 8 27.8
2017-Apr-29 01:20 129 1 gusting 7 27.8
2017-Apr-29 01:10 110 5 gusting 7 27.8
2017-Apr-29 01:00 069 3 gusting 6 27.8
2017-Apr-29 00:50 102 6 gusting 8 27.8
2017-Apr-29 00:40 146 4 gusting 7 27.8
2017-Apr-29 00:30 140 8 gusting 11 27.8
2017-Apr-29 00:20 104 1 gusting 6 27.8
2017-Apr-29 00:10 125 7 gusting 8 27.8
2017-Apr-29 00:00 017 4 gusting 7 28.3
2017-Apr-28 23:50 093 2 gusting 6 28.3
2017-Apr-28 23:40 108 1 gusting 11 28.3
2017-Apr-28 23:30 118 0 gusting 5 28.9
2017-Apr-28 23:20 159 0 gusting 5 28.9
2017-Apr-28 23:10 105 0 gusting 1 29.4
2017-Apr-28 23:00 148 29.4
2017-Apr-28 22:54 098 0 gusting 0 29.4
2017-Apr-28 22:50 165 0 gusting 4 30.0
2017-Apr-28 22:40 059 0 gusting 1 30.6
2017-Apr-28 22:30 185 30.6
2017-Apr-28 22:20 261 0 gusting 5 30.6
2017-Apr-28 22:10 092 1 gusting 2 30.6
2017-Apr-28 22:00 104 1 gusting 1 30.6
2017-Apr-28 21:50 168 1 gusting 4 30.6
2017-Apr-28 21:40 063 1 gusting 10 31.1
2017-Apr-28 21:30 076 0 gusting 4 31.7
2017-Apr-28 21:20 194 0 gusting 5 31.7
2017-Apr-28 21:10 062 0 gusting 6 31.7
2017-Apr-28 21:00 246 0 gusting 2 31.7
2017-Apr-28 20:50 110 0 gusting 1 31.7
2017-Apr-28 20:40 162 1 gusting 5 31.7
2017-Apr-28 20:30 138 0 gusting 6 31.7
2017-Apr-28 20:20 130 1 gusting 4 31.7
2017-Apr-28 20:10 028 2 gusting 7 31.7
2017-Apr-28 20:00 138 2 gusting 6 31.7
2017-Apr-28 19:50 124 0 gusting 2 31.7
2017-Apr-28 19:40 096 0 gusting 4 31.7
2017-Apr-28 19:30 088 1 gusting 6 31.7
2017-Apr-28 19:20 110 1 gusting 1 31.7
2017-Apr-28 19:10 284 1 gusting 5 31.7
2017-Apr-28 19:00 210 1 gusting 5 31.7
2017-Apr-28 18:50 128 2 gusting 4 31.7
2017-Apr-28 18:40 111 1 gusting 4 32.2
2017-Apr-28 18:30 123 5 gusting 7 31.7
2017-Apr-28 18:20 231 0 gusting 6 31.7
2017-Apr-28 18:10 064 32.2
2017-Apr-28 18:00 172 0 gusting 4 32.2
2017-Apr-28 17:50 081 0 gusting 4 31.7
2017-Apr-28 17:40 135 0 gusting 1 32.2
2017-Apr-28 17:30 344 1 gusting 2 32.2
2017-Apr-28 17:20 120 0 gusting 0 32.2
2017-Apr-28 17:10 233 0 gusting 0 31.7
2017-Apr-28 17:00 215 0 gusting 1 31.7
2017-Apr-28 16:50 063 0 gusting 2 31.7
2017-Apr-28 16:40 105 31.7
2017-Apr-28 16:30 261 31.7
2017-Apr-28 16:20 138 31.7
2017-Apr-28 16:10 157 0 gusting 1 31.1
2017-Apr-28 16:00 180 0 gusting 2 31.7
2017-Apr-28 15:50 173 0 gusting 1 31.7
2017-Apr-28 15:40 279 1 gusting 7 31.7
2017-Apr-28 15:30 278 1 gusting 5 31.7
2017-Apr-28 15:20 111 5 gusting 8 31.7
2017-Apr-28 15:10 112 1 gusting 4 31.1
2017-Apr-28 15:00 146 2 gusting 5 31.1
2017-Apr-28 14:50 342 0 gusting 1 31.1
2017-Apr-28 14:40 090 30.6
2017-Apr-28 14:30 255 0 gusting 2 30.6
2017-Apr-28 14:20 024 1 gusting 2 30.6
2017-Apr-28 14:10 177 1 gusting 1 30.6
2017-Apr-28 14:00 243 1 gusting 5 30.6
2017-Apr-28 13:50 092 0 gusting 2 30.6
2017-Apr-28 13:40 066 30.0
2017-Apr-28 13:30 066 0 gusting 6 30.0
2017-Apr-28 13:20 085 0 gusting 4 29.4
2017-Apr-28 13:10 241 1 gusting 2 28.9
2017-Apr-28 13:00 046 0 gusting 2 28.9
2017-Apr-28 12:50 116 1 gusting 4 28.3
2017-Apr-28 12:40 107 0 gusting 5 27.8
2017-Apr-28 12:30 132 0 gusting 4 27.8
2017-Apr-28 12:20 102 0 gusting 5 27.8
2017-Apr-28 12:10 071 1 gusting 5 27.2
2017-Apr-28 12:00 089 0 gusting 5 26.7
2017-Apr-28 11:50 193 0 gusting 0 26.7
2017-Apr-28 11:40 196 26.1
2017-Apr-28 11:30 017 26.1
2017-Apr-28 11:20 112 0 gusting 5 25.6
2017-Apr-28 11:10 096 0 gusting 1 25.0
2017-Apr-28 11:00 091 0 gusting 4 25.0
2017-Apr-28 10:50 135 1 gusting 5 25.6
2017-Apr-28 10:40 205 1 gusting 1 27.2
2017-Apr-28 10:30 110 27.2
2017-Apr-28 10:20 179 1 gusting 4 27.2
2017-Apr-28 10:10 067 0 gusting 1 27.2
2017-Apr-28 10:00 194 27.2
2017-Apr-28 09:50 114 27.2
2017-Apr-28 09:40 078 1 gusting 2 27.2
2017-Apr-28 09:30 113 27.2
2017-Apr-28 09:20 134 27.8
2017-Apr-28 09:10 093 27.2
2017-Apr-28 09:00 027 27.2
2017-Apr-28 08:50 054 27.2
2017-Apr-28 08:40 074 27.2
2017-Apr-28 08:30 076 27.2
2017-Apr-28 08:20 172 27.2
2017-Apr-28 08:10 043 0 gusting 0 27.2
2017-Apr-28 08:00 184 27.2
2017-Apr-28 07:50 162 2 gusting 4 27.8
2017-Apr-28 07:40 076 1 gusting 2 27.2
2017-Apr-28 07:30 080 27.8
2017-Apr-28 07:20 243 0 gusting 0 27.2
2017-Apr-28 07:10 137 0 gusting 0 27.8
2017-Apr-28 07:00 144 0 gusting 0 27.8
2017-Apr-28 06:50 115 0 gusting 0 27.8
2017-Apr-28 06:40 242 27.8
2017-Apr-28 06:30 146 0 gusting 0 27.8
2017-Apr-28 06:20 208 0 gusting 2 27.8
2017-Apr-28 06:10 145 0 gusting 1 27.8
2017-Apr-28 06:00 259 0 gusting 0 27.8
2017-Apr-28 05:50 277 0 gusting 0 27.8
2017-Apr-28 05:40 139 27.8
2017-Apr-28 05:30 015 0 gusting 0 27.8
2017-Apr-28 05:20 070 27.8
2017-Apr-28 05:10 186 0 gusting 0 27.8
2017-Apr-28 05:00 138 0 gusting 1 27.8
2017-Apr-28 04:50 128 0 gusting 4 27.8
2017-Apr-28 04:40 243 1 gusting 2 27.8
2017-Apr-28 04:30 051 1 gusting 2 27.8
2017-Apr-28 04:20 169 0 gusting 5 27.8
2017-Apr-28 04:10 077 2 gusting 4 27.8
2017-Apr-28 04:00 158 0 gusting 0 27.8
2017-Apr-28 03:50 157 0 gusting 2 27.8
2017-Apr-28 03:40 180 27.8
2017-Apr-28 03:30 105 27.8
2017-Apr-28 03:20 041 0 gusting 4 27.8
2017-Apr-28 03:10 218 0 gusting 4 27.8
2017-Apr-28 03:00 094 0 gusting 1 27.8
2017-Apr-28 02:50 113 27.8
2017-Apr-28 02:40 088 2 gusting 4 27.8
2017-Apr-28 02:30 111 0 gusting 4 27.8
2017-Apr-28 02:20 094 1 gusting 4 27.8
2017-Apr-28 02:10 136 6 gusting 8 27.8
2017-Apr-28 02:00 154 27.8
2017-Apr-28 01:50 161 1 gusting 4 27.8
2017-Apr-28 01:40 097 0 gusting 2 28.3
2017-Apr-28 01:30 176 28.3
2017-Apr-28 01:20 186 0 gusting 2 28.3
2017-Apr-28 01:10 123 0 gusting 0 28.3
2017-Apr-28 01:00 110 2 gusting 4 28.3
2017-Apr-28 00:50 120 0 gusting 0 28.3
2017-Apr-28 00:40 041 28.3
2017-Apr-28 00:30 161 28.3
2017-Apr-28 00:20 327 28.3
2017-Apr-28 00:10 090 0 gusting 0 28.3
2017-Apr-28 00:00 093 28.3
2017-Apr-27 23:50 133 28.3
2017-Apr-27 23:40 135 0 gusting 0 28.3
2017-Apr-27 23:30 148 0 gusting 2 28.9
2017-Apr-27 23:20 341 0 gusting 0 28.9
2017-Apr-27 23:10 172 0 gusting 1 29.4
2017-Apr-27 23:00 131 0 gusting 1 29.4
2017-Apr-27 22:54 098 29.4
2017-Apr-27 22:50 202 29.4
2017-Apr-27 22:40 135 0 gusting 1 30.0
2017-Apr-27 22:30 151 0 gusting 1 30.0
2017-Apr-27 22:20 077 0 gusting 1 30.0
2017-Apr-27 22:10 154 30.0
2017-Apr-27 22:00 348 0 gusting 0 30.6
2017-Apr-27 21:50 068 30.6
2017-Apr-27 21:40 117 0 gusting 2 30.6
2017-Apr-27 21:30 043 30.6
2017-Apr-27 21:20 138 2 gusting 2 30.6
2017-Apr-27 21:10 171 0 gusting 4 30.6
2017-Apr-27 21:00 108 30.6